Location: Engelade
(51.8779°N, 10.1374°E)
Time: 14:06:28
(UTC+00:00)

Daily predictions for brighter satellites

Satellite Brightness Start Highest point End
(mag) Time Altitude Azimuth Time Altitude Azimuth Time Altitude Azimuth
Cosmos 968 Rocket 3.8 19:33:46 10° SSW 19:39:01 74° WNW 19:44:15 10° NNE
NOSS 3-3 (A) 4.4 19:34:33 10° S 19:39:51 38° ESE 19:45:49 10° NE
NOSS 3-3 (C) 4.4 19:34:40 10° S 19:39:58 38° ESE 19:45:55 10° NE
ATLAS 2AS CENTAUR R/B 3.7 19:33:50 10° NW 19:41:07 45° NNE 19:47:55 10° E
Intercosmos 24 3.6 19:38:50 10° S 19:42:27 76° E 19:46:09 10° NNE
Cosmos 1354 Rocket 4.1 19:38:02 10° S 19:43:08 55° ESE 19:48:16 10° NNE
Sich 1 3.4 19:38:57 10° NNW 19:43:16 68° W 19:47:36 10° S
S3M 4.1 19:38:48 10° S 19:45:11 87° E 19:51:32 10° N
USA 245 3.4 19:43:48 10° SE 19:45:40 23° ENE 19:47:35 10° N
SJ 16-02 3.1 19:43:27 10° SE 19:46:05 16° E 19:48:43 10° ENE
USA 308 2.9 19:43:28 10° WNW 19:47:47 89° NNE 19:52:06 10° ESE
OBJECT-B 3.1 19:45:08 10° SSW 19:47:49 24° W 19:50:32 10° NW
SPOT 1/Viking Rocket 3.8 19:43:48 10° SE 19:48:53 57° ENE 19:53:59 10° N
Meteor 1-26 Rocket 4.3 19:43:30 10° S 19:49:00 57° E 19:54:24 10° NNE
Cosmos 2315 Rocket 4.2 19:44:44 10° S 19:50:56 57° E 19:57:11 10° NNE
Cosmos 1500 3.5 19:48:36 10° N 19:52:16 48° ENE 19:55:53 10° SSE
USA 215 3.9 19:47:04 10° ENE 19:53:29 59° N 19:59:52 10° W
BREEZE M DEB (TANK) 2.3 19:51:33 10° W 19:57:20 58° SSW 19:59:41 10° ESE
Meteor 1-14 Rocket 4.4 19:52:10 10° N 19:58:05 70° ENE 20:03:49 10° SSE
Terra 3.1 19:54:28 10° ESE 19:58:26 27° ENE 20:02:24 10° N
Cosmos 2082 Rocket 2.9 19:53:12 10° NNW 19:58:35 44° NE 20:03:56 10° ESE
X-37B 2.8 20:00:49 10° WSW 20:02:44 15° SSW 20:04:38 10° SSE
CREW DRAGON DEMO-1 DEB 2.7 20:00:29 10° W 20:03:05 53° SSW 20:05:17 13° ESE
Cosmos 1151 Rocket 3.0 19:59:06 10° S 20:03:25 68° E 20:07:48 10° NNE
SPOT 3 Rocket 3.7 19:58:21 10° S 20:03:30 75° WSW 20:08:41 10° NNW
SPOT 5 3.8 19:59:20 10° SE 20:04:07 41° ENE 20:09:05 10° N
Cosmos 1437 Rocket 4.4 20:00:59 10° SW 20:04:39 39° WNW 20:08:26 10° N
COSMOS 2406 3.3 19:59:24 10° NNW 20:05:07 78° ENE 20:10:33 11° SE
ERBS 3.9 20:02:26 10° WNW 20:05:29 32° N 20:08:31 10° ENE
Cosmos 2084 3.7 20:03:59 10° SSW 20:07:56 44° SE 20:12:00 10° NE
Resurs 01 Rocket 2.2 20:03:47 10° S 20:08:10 59° WSW 20:12:35 10° NNW
Cosmos 1538 Rocket 4.1 20:08:32 10° NNW 20:13:56 73° ENE 20:18:45 13° SSE
Cosmos 1933 4.2 20:11:12 10° SSW 20:15:09 53° WNW 20:19:08 10° N
Cosmos 773 Rocket 4.4 20:12:01 10° NNW 20:17:17 64° WSW 20:22:30 10° S
MetOp-B 4.4 20:15:58 10° S 20:21:18 69° WSW 20:26:40 10° NNW
Cosmos 1271 Rocket 3.8 20:19:15 14° SE 20:21:58 29° E 20:25:27 10° NNE
Cosmos 2278 Rocket 2.5 20:20:55 10° S 20:26:17 46° ESE 20:31:41 10° NE
BREEZE-M DEB (TANK) 1.4 20:24:43 10° W 20:26:48 43° S 20:27:56 21° ESE
Spot 2 Rocket 3.5 20:22:06 11° SSE 20:26:54 86° ENE 20:31:59 10° NNW
USA 305 3.0 20:23:57 10° WNW 20:28:10 61° SSW 20:31:23 16° SE
Cosmos 1782 3.2 20:24:50 10° SSW 20:28:48 66° WNW 20:32:47 10° N
Cosmos 1680 Rocket 4.4 20:25:18 10° NNW 20:30:21 40° NE 20:34:33 14° ESE
Cosmos 1844 Rocket 4.1 20:25:30 10° WSW 20:30:48 43° NW 20:36:09 10° NNE
Cosmos 1242 Rocket 4.1 20:28:10 10° SW 20:31:29 36° WNW 20:34:48 10° N
Gbstr 26 Del rocket 4.3 20:25:15 10° W 20:33:08 90° SSW 20:39:49 10° E
Cosmos 1943 Rocket 4.1 20:32:27 11° ESE 20:33:51 12° E 20:35:39 10° ENE
Cosmos 1515 Rocket 3.6 20:29:46 10° S 20:34:08 65° E 20:38:30 10° NNE
ERS-1 Rocket 3.0 20:30:20 15° SSE 20:34:31 70° ENE 20:39:33 10° N
Cosmos 1869 Rocket 4.2 20:31:59 10° N 20:36:06 40° ENE 20:38:55 18° SE
CZ-4C R/B 3.3 20:29:46 10° NW 20:36:46 61° SW 20:43:47 15° SSE
Cosmos 1633 Rocket 4.3 20:34:20 10° NNW 20:38:26 39° W 20:42:31 10° SSW
Meteor 1-11 Rocket 4.0 20:37:22 10° N 20:43:21 65° ENE 20:47:53 17° SSE
deb Kosmos-1763 4.3 20:42:07 10° NNW 20:45:37 61° WSW 20:47:57 19° S
ATLAS 5 CENTAUR R/B 4.0 20:41:17 10° WNW 20:45:49 24° WSW 20:50:52 10° SSW
USA 306 3.3 20:43:17 10° WNW 20:47:25 49° SSW 20:49:58 21° SE
Cosmos 1818 4.4 20:43:26 10° NW 20:48:42 45° NE 20:53:34 12° ESE
Cosmos 1470 Rocket 4.4 20:46:26 10° NNW 20:50:47 49° W 20:55:00 10° SSW
Cosmos 1812 2.8 20:47:22 10° SSW 20:51:14 79° WNW 20:55:07 10° N
Cosmos 1328 Rocket 4.3 20:47:00 10° SSW 20:51:21 53° WNW 20:55:41 10° N
Cosmos 1777 Rocket 4.0 20:48:00 10° SSW 20:53:13 86° WNW 20:58:28 10° NNE
Cosmos 1340 Rocket 3.8 20:49:30 10° N 20:53:18 35° ENE 20:55:28 21° ESE
ARIANE 5 R/B 3.1 20:52:22 14° S 20:55:58 55° W 21:00:14 10° NNW
Cosmos 1666 3.0 20:54:11 10° NNW 20:57:53 61° W 21:00:28 18° S
CARTOSAT-1 4.1 20:56:42 15° S 21:00:10 54° W 21:04:26 10° NNW
Meteor 2-12 Rocket 4.4 20:54:48 10° N 21:00:55 80° ENE 21:05:21 19° SSE
Cosmos 1833 Rocket 3.5 20:57:24 10° NW 21:02:45 44° WSW 21:07:04 15° S
Cosmos 1933 Rocket 4.2 21:00:49 10° NNW 21:05:02 52° W 21:08:26 15° SSW
Cosmos 2154 Rocket 4.0 20:58:48 10° N 21:05:10 78° ENE 21:09:42 20° SSE
Cosmos 923 Rocket 4.0 21:01:31 10° NNW 21:06:49 88° ENE 21:10:12 23° SSE
BREEZE-M R/B 1.8 21:04:39 10° WSW 21:07:02 53° S 21:07:49 35° ESE
SL-24 DEB 4.2 21:05:35 23° SSE 21:08:25 70° E 21:13:01 10° N
Cosmos 1536 2.8 21:04:24 10° N 21:08:28 70° ENE 21:10:33 27° SSE
Cosmos 1898 Rocket 4.4 21:07:15 22° SE 21:09:36 32° ESE 21:14:19 10° NE
Meteor 1-10 Rocket 4.2 21:05:30 12° S 21:10:45 88° ESE 21:16:29 10° NNE
Cosmos 2184 Rocket 4.2 21:06:23 10° NNW 21:12:35 70° W 21:17:33 16° S
Cosmos 1743 3.3 21:09:09 10° N 21:12:51 43° ENE 21:14:28 27° SE
USA 307 3.7 21:10:00 10° WNW 21:13:57 37° SW 21:15:38 26° S
H-2A R/B 3.5 21:11:44 10° NNE 21:15:56 66° ESE 21:18:18 24° S
Cosmos 2074 Rocket 4.3 21:10:51 10° NNW 21:17:05 64° W 21:22:14 15° S
NOSS 3-4 (A) 4.1 21:12:13 10° NW 21:19:00 61° SW 21:24:06 22° SSE
NOSS 3-4 (C) 4.1 21:12:19 10° NW 21:19:07 61° SW 21:24:12 22° SSE
Cosmos 990 Rocket 4.3 21:20:01 24° S 21:22:54 48° ESE 21:27:58 10° NE
Cosmos 1975 4.5 21:19:54 10° NNE 21:23:07 23° ENE 21:24:44 18° E
SJ 16-02 1.5 21:19:39 10° SSW 21:24:06 74° WNW 21:28:33 10° NNE
Nadezhda 1 Rocket 4.0 21:19:51 18° S 21:24:47 80° E 21:31:02 10° NNE
Cosmos 2297 4.3 21:22:46 25° SSE 21:25:17 37° ESE 21:30:26 10° NE
Cosmos 1733 Rocket 3.6 21:21:48 10° N 21:25:58 43° ENE 21:27:49 27° SE
USA 308 3.9 21:23:40 10° W 21:27:29 31° SW 21:28:43 26° S
ATLAS 2AS CENTAUR R/B 2.8 21:25:13 10° NW 21:32:41 77° SW 21:37:04 25° SSE
Cosmos 1544 3.0 21:32:09 10° NNW 21:35:46 80° W 21:37:03 38° S
Terra 2.4 21:33:01 21° SSW 21:35:57 51° W 21:40:37 10° NNW
USA 215 3.6 21:29:40 10° E 21:36:08 65° NNE 21:42:36 10° WNW
Iridium 4 Rocket 4.5 21:30:58 11° SSW 21:36:26 52° W 21:42:14 10° N
ERBS 2.4 21:38:40 10° WNW 21:41:58 67° NNE 21:43:15 34° E
SPOT 5 4.2 21:38:33 15° SSW 21:42:14 36° W 21:47:08 10° NNW
Cosmos 2082 Rocket 3.0 21:37:26 10° NW 21:42:41 42° WSW 21:45:50 22° SSW
Cosmos 2112 Rocket 4.1 21:40:07 10° NNW 21:45:29 71° WSW 21:48:11 30° S
Cosmos 2181 Rocket 4.4 21:44:37 27° SSE 21:47:40 48° E 21:53:32 10° NNE
Cosmos 2228 Rocket 3.7 21:45:35 18° SSW 21:48:45 54° WNW 21:53:10 10° N
Cosmos 44 3.6 21:44:05 10° NW 21:49:31 69° SW 21:51:59 32° SSE
Cosmos 2366 rocket 4.2 21:46:29 10° N 21:52:37 62° ENE 21:55:56 28° SSE
Spot 4 4.0 21:55:19 32° SE 21:57:29 67° ENE 22:02:20 10° N
Cosmos 2084 Rocket 3.4 21:53:29 10° NW 21:57:43 74° SW 21:59:14 40° SSE
Cosmos 1271 Rocket 4.5 21:54:20 10° SW 21:57:54 31° WNW 22:01:31 10° N
Cosmos 2341 Rocket 4.1 21:54:06 10° NNW 22:00:32 82° W 22:04:08 28° S
BREEZE-M DEB (TANK) 2.7 21:55:53 10° W 22:02:04 80° N 22:03:26 26° E
Meteor 1-27 Rocket 4.2 21:58:45 16° SSW 22:03:27 61° WNW 22:09:21 10° N
Cosmos 1515 3.5 22:04:29 49° S 22:05:25 78° E 22:09:12 10° NNE
Cosmos 489 Rocket 4.4 22:03:48 10° NNW 22:10:04 90° WSW 22:13:17 31° SSE
Cosmos 2278 Rocket 3.5 22:05:10 10° WSW 22:10:29 40° NW 22:15:50 10° NNE
SL-24 R/B - RUBIN 2 4.4 22:06:07 10° NW 22:11:25 47° WSW 22:13:07 34° S
Cosmos 1937 Rocket 3.4 22:09:32 33° S 22:11:50 71° ESE 22:17:01 10° NNE
Cosmos 1862 Rocket 3.5 22:10:39 43° SSE 22:11:57 68° E 22:16:16 10° NNE
Cosmos 1680 Rocket 4.4 22:07:33 10° NW 22:12:28 39° WSW 22:14:52 25° SSW
Cosmos 2218 Rocket 4.0 22:08:43 10° N 22:15:03 87° E 22:18:16 32° S
Cosmos 1943 Rocket 2.2 22:13:55 32° S 22:16:29 63° ESE 22:22:01 10° NE
Cosmos 2369 Rocket 2.8 22:17:10 32° SE 22:18:44 38° ESE 22:23:56 10° NE
Gbstr 26 Del rocket 4.1 22:13:07 10° WNW 22:20:25 62° SSW 22:23:48 28° SE
Meteor 1-19 Rocket 4.1 22:19:24 35° S 22:21:44 75° E 22:27:09 10° NNE
Cosmos 1238 Rocket 4.0 22:16:18 10° NNW 22:22:33 67° W 22:25:13 32° SSW
Cosmos 1048 Rocket 4.5 22:17:44 10° NNW 22:23:00 56° ENE 22:25:39 28° SE
Gblst 52 Del rocket 4.5 22:18:45 10° WNW 22:25:42 67° SSW 22:29:37 23° SE
Meteor 2-9 Rocket 4.3 22:20:13 10° NNW 22:26:02 74° W 22:28:36 34° S
COBE Rocket 4.3 22:24:30 32° SE 22:26:40 59° ENE 22:31:45 10° N
Cosmos 858 Rocket 4.4 22:24:21 31° SSW 22:26:54 87° ESE 22:32:10 10° NNE
Cosmos 1340 Rocket 4.5 22:26:12 10° NW 22:29:37 26° W 22:31:03 21° SW
Okean 1 3.5 22:29:36 41° SW 22:30:49 67° WNW 22:34:48 10° N
Okean 1-7 3.7 22:31:00 35° ESE 22:31:49 39° E 22:35:49 10° NNE
Cosmos 1818 3.9 22:27:07 10° NW 22:32:25 50° WSW 22:34:12 36° S
Cosmos 1707 Rocket 4.5 22:32:59 24° SW 22:35:13 42° WNW 22:39:27 10° N
Cosmos 1656 Rocket 4.4 22:35:34 30° SE 22:36:49 34° ESE 22:41:45 10° NE
DNEPR-1 R/B 3.9 22:34:46 27° SSW 22:37:57 76° SE 22:42:48 10° NE
SL-8 Rocket 4.3 22:32:08 10° NNW 22:38:20 58° W 22:41:32 29° SSW
ALOS 2 2.5 22:41:06 47° S 22:42:20 83° WSW 22:46:46 10° NNW
Cosmos 1356 Rocket 4.2 22:42:06 10° N 22:46:14 44° ENE 22:47:36 33° ESE
Meteor 2-4 Rocket 3.7 22:47:04 37° S 22:49:26 76° E 22:55:04 10° NNE
Cosmos 1898 Rocket 4.3 22:47:28 16° SW 22:51:32 48° WNW 22:56:43 10° NNE
SL-27 R/B 2.6 22:50:15 10° NNW 22:53:32 56° ENE 22:53:51 53° E
SL-08 R/B 4.5 22:49:23 10° NNW 22:55:37 83° W 22:58:29 35° S
BREEZE-M DEB (TANK) 4.4 22:41:52 10° WNW 22:56:36 53° SW 22:58:40 35° SSE
COSMOS 2455 4.4 22:51:34 10° NNW 22:57:00 33° NNE 23:02:25 10° E
Cosmos 1975 3.6 22:55:59 10° NNW 22:59:43 39° W 23:00:28 35° WSW
Sich 1 Rocket 4.3 22:57:58 10° N 23:02:25 47° ENE 23:04:02 32° SE
RESURS DK-1 2.3 22:58:31 10° NW 23:02:43 79° WSW 23:03:31 56° SSE
SJ 16-02 4.1 23:01:04 10° WNW 23:03:30 14° NW 23:05:57 10° N
Cosmos 2297 Rocket 4.3 23:01:25 10° NNW 23:06:00 24° NE 23:10:33 10° E
Cosmos 2150 Rocket 4.3 23:04:29 39° SSE 23:06:06 54° ESE 23:11:16 10° NNE
Cosmos 1833 4.2 23:01:09 10° NNW 23:06:56 80° WSW 23:09:23 36° SSE
SeaSat 1 3.3 23:03:07 10° NE 23:07:36 33° ESE 23:08:32 31° SE
NOSS 2-1 (E) 4.5 23:03:19 10° NW 23:07:49 61° NE 23:14:08 10° ESE
Cosmos 1461 3.1 23:07:22 38° SW 23:09:10 90° NW 23:13:48 10° NE
Cosmos 2297 4.5 23:04:37 14° WSW 23:09:20 49° NW 23:14:52 10° NNE
Cosmos 372 Rocket 4.0 23:07:02 33° SW 23:09:20 72° WNW 23:14:28 10° NNE
Cosmos 2242 Rocket 3.5 23:09:01 48° SSW 23:10:14 82° W 23:14:44 10° N
Meteor 1-12 Rocket 4.3 23:04:17 10° NNW 23:10:14 86° E 23:12:43 36° SSE
Cosmos 2239 Rocket 4.5 23:04:15 10° N 23:10:36 84° E 23:13:35 34° SSE
ISS -2.2 23:18:16 25° E 23:18:16 25° E 23:19:54 10° E
Cosmos 494 Rocket 3.9 23:13:07 10° NNW 23:18:21 77° WSW 23:20:07 42° S
Cosmos 1908 Rocket 4.4 23:14:23 10° NNW 23:18:36 40° W 23:19:43 34° SW
USA 215 3.2 23:13:56 17° SE 23:19:09 72° SSW 23:25:43 10° WNW
Cosmos 1300 Rocket 3.9 23:15:56 10° N 23:20:20 60° ENE 23:21:41 40° SE
MTI 4.1 23:19:00 10° N 23:21:54 51° WNW 23:21:54 51° WNW
Okean 2 Rocket 3.6 23:18:07 10° N 23:22:25 50° ENE 23:23:56 34° SE
ATLAS 2AS CENTAUR R/B 4.2 23:17:26 10° WNW 23:22:27 20° WSW 23:24:29 18° SW
Nimbus 7 Rocket 4.3 23:17:59 10° NNE 23:23:54 88° WNW 23:26:37 35° SSW
Cosmos 1867 3.6 23:25:56 39° SSW 23:27:54 68° SE 23:33:22 10° NE
Cosmos 1125 Rocket 3.6 23:26:49 41° S 23:28:31 64° ESE 23:33:41 10° NNE
Cosmos 44 Rocket 3.4 23:23:28 10° NW 23:28:45 88° NE 23:31:23 30° SE
SAR-Lupe-2 4.3 23:28:47 10° N 23:32:13 44° WNW 23:32:57 38° WSW
Cosmos 1378 3.0 23:34:53 65° SW 23:35:22 80° W 23:39:05 10° N
ATLAS CENTAUR R/B 1.3 23:38:30 53° SE 23:38:31 53° SE 23:42:14 10° NE
Cosmos 1821 Rocket 4.3 23:32:21 10° NNW 23:38:36 56° W 23:41:25 32° SSW
Cosmos 2344 4.3 23:29:53 10° NW 23:38:53 74° SW 23:51:07 11° SSE
Cosmos 1934 Rocket 3.9 23:33:08 10° N 23:39:20 88° WSW 23:42:10 34° S
Cosmos 1726 4.2 23:38:34 10° NNE 23:41:32 22° ENE 23:43:27 15° ESE
USA 281 3.7 23:36:59 11° SE 23:43:08 59° NE 23:49:35 10° NNW
USA 81 4.2 23:42:54 10° N 23:48:12 68° E 23:50:37 33° SSE
Okean 3 3.6 23:50:46 44° SW 23:51:53 63° WNW 23:56:07 10° N
Meteor 1-15 Rocket 4.2 23:47:43 10° NNW 23:53:23 73° W 23:55:50 36° S
Lacrosse 5 3.0 23:54:51 26° SE 23:55:20 26° SE 23:59:33 10° ENE
